• Processing (Info)

  • MPEC 2022-M27 : 2022 MJ

    The following Minor Planet Electronic Circular may be linked-to from your own Web pages, but must not otherwise be redistributed electronically.

    A form allowing access to any MPEC is at the bottom of this page.


    Read MPEC 2022-M26 Read MPEC 2022-M28


    M.P.E.C. 2022-M27                                 Issued 2022 June 21, 12:52 UT
    
         The Minor Planet Electronic Circulars contain information on unusual
             minor planets and routine data on comets.  They are published
        on behalf of Division F of the International Astronomical Union by the
              Minor Planet Center, Smithsonian Astrophysical Observatory,
                              Cambridge, MA 02138, U.S.A.
    
                 Prepared using the Tamkin Foundation Computer Network
    
                                  MPC@CFA.HARVARD.EDU
                URL https://www.minorplanetcenter.net/    ISSN 1523-6714
    
                                     2022 MJ                                 
    
    
    Observations:
         K22M00J  C2022 06 05.38959 17 47 55.66 +29 12 26.0          22.4 GVEM027G96
         K22M00J  C2022 06 05.40513 17 47 56.25 +29 12 06.8          21.7 GVEM027G96
         K22M00J*KC2022 06 20.22451 18 17 23.10 +11 46 42.3          19.4 GVEM027W16
         K22M00J KC2022 06 20.23245 18 17 24.75 +11 45 12.0          19.0 GVEM027W16
         K22M00J KC2022 06 20.24040 18 17 26.42 +11 43 42.6          19.2 GVEM027W16
         K22M00J KC2022 06 20.24835 18 17 28.03 +11 42 12.7          19.0 GVEM027W16
         K22M00J KC2022 06 21.02561418 20 57.365+09 03 09.97         19.4 GVEM027J95
         K22M00J KC2022 06 21.03668518 21 00.142+09 00 44.57               VEM027J95
         K22M00J KC2022 06 21.04270318 21 01.642+08 59 24.68         19.1 GVEM027J95
         K22M00J KC2022 06 21.16266 18 21 41.86 +08 33 11.2          19.3 GVEM027W16
         K22M00J KC2022 06 21.17343 18 21 44.58 +08 30 45.8          19.2 GVEM027W16
         K22M00J KC2022 06 21.18409 18 21 47.25 +08 28 21.1          19.0 GVEM027W16
         K22M00J  C2022 06 21.37498618 22 39.310+07 44 19.31         19.5 GVEM027654
         K22M00J  C2022 06 21.37644418 22 39.679+07 43 58.68         19.5 GVEM027654
    
    Observer details:
    654 Table Mountain Observatory, Wrightwood-PHMC.  Observers N. Evans, P. Choi,
        N. Saini, C. Zhai, R. Trahan, M. Shao.  1.0-m Reflector + CCD.
    G96 Mt. Lemmon Survey.  Observer A. Serrano.  Measurers B. Gray, D. Rankin, F.
        C. Shelly.  1.5-m reflector + 10K CCD.
    J95 Great Shefford.  Observer P. Birtwhistle.  0.41-m f/6.3 Schmidt-Cassegrain
        + CCD.
    W16 Pleasant Groves Observatory.  Observer M. Holbrook.  360mm Reflector +
        CCD.
    
    Orbital elements:
    2022 MJ                                                  Earth MOID = 0.0352 AU
    Epoch 2022 Aug. 9.0 TT = JDT 2459800.5                  Veres                   
    M   8.21468              (2000.0)            P               Q                  
    n   0.51526890     Peri.  210.32600     +0.54218024     +0.76915864             
    a   1.5409200      Node    94.56722     -0.68656671     +0.63762118             
    e   0.3395417      Incl.   19.83794     -0.48442413     -0.04282788             
    P   1.91           H   24.08          G   0.15           U   8                  
    Residuals in seconds of arc
    220605 G96  0.1+  0.0     220620 W16  0.1-  0.1+    220621 W16  0.0   0.1+
    220605 G96  0.1-  0.0     220621 J95  0.0   0.1-    220621 W16  0.0   0.4-
    220620 W16  0.1-  0.4+    220621 J95  0.2+  0.6+    220621 654  0.0   0.0
    220620 W16  0.0   0.4-    220621 J95  0.1+  0.3+    220621 654  0.0   0.0
    220620 W16  0.4+  0.0     220621 W16  0.1-  0.2+
    
    Ephemeris:
    2022 MJ                  a,e,i = 1.54, 0.34, 20                  q = 1.0177
    Date    TT    R. A. (2000) Decl.     Delta      r    Elong.  Phase     V
    2022 05 22    17 36 25.6 +30 39 50   0.2686  1.1815   123.4    45.7    23.3
    ...
    2022 06 06    17 48 33.3 +28 59 50   0.1616  1.1190   126.8    46.5    22.1
    ...
    2022 06 14    17 59 38.2 +23 40 11   0.1062  1.0901   132.5    43.4    21.1
    ...
    2022 06 20    18 16 25.6 +12 29 02   0.06732 1.0711   143.6    34.2    19.8
    2022 06 21    18 20 50.0 +09 10 33   0.06138 1.0681   146.9    31.3    19.5
    2022 06 22    18 26 01.6 +05 09 13   0.05574 1.0653   150.8    27.8    19.2
    ...
    2022 06 28    19 36 46.9 -41 47 40   0.03595 1.0496   156.4    22.8    18.1
    ...
    2022 07 06    02 47 47.3 -69 45 21   0.06688 1.0333   102.5    73.8    20.9
    ...
    2022 07 21    04 47 32.5 -55 17 47   0.1614  1.0182    86.2    84.7    23.1
    
    M. P. C. Staff               (C) Copyright 2022 MPC           M.P.E.C. 2022-M27
    


    Read MPEC 2022-M26 Read MPEC 2022-M28


    MPEC number:

    Enter an MPEC number in one of the following forms:

    • 1997-B01 (the full form)
    • J97B01 (the packed version of the full form)
    • B01 (the abbreviated form)